Home > Weather > Belfast > Past weeks

Flag for United Kingdom Past Weather in Belfast, Northern Ireland, United Kingdom — Yesterday and Last 2 Weeks

Now
52 °F

Passing clouds.


Feels Like: 50 °F
Forecast: 41 / 63 °F
Wind: 6 mph from Northeast

Location: Belfast / Harbour

Current Time: May 27, 2016 at 11:20:34 PM

Latest Report: May 27, 2016 at 9:20 PM


Visibility: N/A

Pressure: 30.07 "Hg

Humidity: 88%

Dew Point: 48 °F

Location of BelfastLocation

Past Weather in Belfast — Graph

°F

Belfast Temperature Yesterday

Maximum temperature yesterday: 52 °F (at 9:50 AM)
Minimum temperature yesterday: 48 °F (at 6:20 AM)
Average temperature yesterday: 51 °F

High & Low Weather Summary for the Past Weeks

 TemperatureHumidityPressure
High63 °F (May 17, 1:20 PM)100% (May 27, 7:20 AM)30.24 "Hg (May 27, 7:20 AM)
Low43 °F (May 14, 6:20 AM)38% (May 14, 7:20 PM)29.42 "Hg (May 21, 6:20 AM)
Average54 °F73%29.96 "Hg
* Reported May 12 9:20 PM — May 27 9:20 PM, Belfast, Weather by CustomWeather, © 2016

Note: Actual official high and low records may vary slightly from our data, if they occured in-between our weather recording intervals... More about our weather records

Advertising

Belfast Weather History for the Previous 24 Hours

Scroll right to see more
 ConditionsComfort  
Time TempWeatherWind HumidityBarometerVisibility
9:20 PM
Fri, May 27
52 °FPassing clouds.6 mph88%30.07 "HgN/A
8:50 PM54 °FPassing clouds.7 mph88%30.07 "HgN/A
8:20 PM55 °FPassing clouds.9 mph82%30.07 "HgN/A
7:50 PM57 °FPassing clouds.12 mph77%30.07 "HgN/A
7:20 PM57 °FPassing clouds.12 mph77%30.07 "HgN/A
6:50 PM57 °FPassing clouds.12 mph77%30.07 "HgN/A
6:20 PM59 °FPassing clouds.13 mph72%30.07 "HgN/A
5:50 PM59 °FPassing clouds.14 mph77%30.07 "HgN/A
5:20 PM57 °FPassing clouds.14 mph82%30.07 "HgN/A
4:50 PM59 °FPassing clouds.9 mph77%30.07 "HgN/A
4:20 PM59 °FPassing clouds.12 mph72%30.07 "HgN/A
3:50 PM59 °FScattered clouds.10 mph77%30.07 "HgN/A
3:20 PM61 °FScattered clouds.10 mph77%30.07 "HgN/A
2:50 PM59 °FBroken clouds.10 mph77%30.07 "HgN/A
2:20 PM57 °FBroken clouds.7 mph77%30.09 "HgN/A
1:50 PM55 °FBroken clouds.8 mph82%30.09 "HgN/A
1:20 PM57 °FBroken clouds.8 mph77%30.09 "HgN/A
12:50 PM55 °FBroken clouds.8 mph82%30.09 "HgN/A
12:20 PM57 °FBroken clouds.8 mph82%30.09 "HgN/A
11:50 AM57 °FBroken clouds.10 mph82%30.09 "HgN/A
11:20 AM55 °FBroken clouds.9 mph88%30.09 "HgN/A
10:50 AM54 °FScattered showers. Broken clouds.8 mph94%30.07 "Hg6 mi
10:20 AM52 °FDrizzle. Fog.8 mph100%30.07 "Hg2 mi
9:50 AM52 °FDrizzle. Fog.8 mph94%30.07 "Hg1 mi
9:20 AM52 °FDrizzle. Broken clouds.7 mph100%30.07 "Hg2 mi
8:50 AM52 °FScattered showers. Broken clouds.8 mph94%30.07 "Hg6 mi
8:20 AM52 °FDrizzle. Broken clouds.7 mph94%30.07 "Hg4 mi
7:50 AM52 °FDrizzle. Broken clouds.8 mph94%30.07 "Hg4 mi
7:20 AM50 °FDrizzle. Broken clouds.9 mph100%30.07 "Hg3 mi
6:50 AM50 °FDrizzle. Broken clouds.7 mph94%30.07 "Hg3 mi
6:20 AM50 °FLight rain. Broken clouds.9 mph94%30.04 "Hg4 mi
Weather by CustomWeather, © 2016

See weather overviewHow to use our weather pages